Flag for Andorra Weather past 2 weeks in Andorra La Vella, Andorra

46 °F


Feels Like: 41 °F
Forecast: 25 / 53 °F
Wind: 12 mph from West

Location: Carcassonne Airport

Current Time: Oct 14, 2015 at 7:05:00 AM

Latest Report: Oct 14, 2015 at 6:00 AM

Visibility: 10 mi

Pressure: 30.01 "Hg (26.48 "Hg at 1031m altitude)

Humidity: 82%

Dew point: 41 °F

Location of Andorra La VellaLocation

Historic Weather in Andorra La Vella — Graph


Andorra La Vella temperature yesterday

Maximum temperature yesterday: 61 °F (at 1:30 PM)
Minimum temperature yesterday: 54 °F (at 9:00 PM)
Average temperature yesterday: 58 °F

Past Weeks' High & Low Weather Summary

High79 °F (Oct 6, 1:30 PM)100% (Oct 2, 7:00 AM)30.18 "Hg (Oct 2, 7:00 AM)
Low41 °F (Oct 10, 8:00 AM)24% (Oct 10, 5:00 PM)29.68 "Hg (Oct 11, 3:30 PM)
Average60 °F72%29.98 "Hg
* Reported Sep 29 6:00 AM — Oct 14 6:00 AM, Andorra La Vella, Weather by CustomWeather, © 2015

Note: Actual official high and low records may vary slightly from our data, if they occured in-between our weather recording intervals... More about our weather records


Andorra La Vella weather history for previous 24 hours

Time TempWeatherWind HumidityBarometerVisibility
6:00 AM
Wed, Oct 14
46 °FClear.12 mph82%30.01 "Hg10 mi
5:30 AM46 °FPassing clouds.13 mph87%30.01 "HgN/A
5:00 AM48 °FClear.14 mph76%30.01 "Hg10 mi
4:30 AM50 °FClear.13 mph76%30.01 "Hg10 mi
4:00 AM50 °FPassing clouds.13 mph82%30.01 "HgN/A
3:30 AM52 °FPassing clouds.13 mph77%30.01 "HgN/A
3:00 AM52 °FPassing clouds.10 mph77%30.01 "HgN/A
2:30 AM52 °FPassing clouds.12 mph82%30.01 "HgN/A
2:00 AM52 °FClear.14 mph82%30.01 "Hg10 mi
1:30 AM52 °FPassing clouds.12 mph82%30.01 "HgN/A
1:00 AM52 °FPassing clouds.9 mph82%30.01 "HgN/A
12:30 AM54 °FClear.9 mph77%30.04 "Hg10 mi
12:00 AM54 °FMostly cloudy.9 mph82%30.04 "HgN/A
11:30 PM
Tue, Oct 13
54 °FOvercast.10 mph82%30.04 "HgN/A
11:00 PM55 °FOvercast.12 mph77%30.04 "HgN/A
10:30 PM54 °FPartly cloudy.10 mph82%30.04 "HgN/A
10:00 PM54 °FOvercast.12 mph82%30.04 "HgN/A
9:30 PM54 °FOvercast.16 mph82%30.01 "HgN/A
9:00 PM54 °FMostly cloudy.16 mph82%30.01 "HgN/A
8:30 PM55 °FMostly cloudy.12 mph77%29.98 "HgN/A
8:00 PM55 °FMostly cloudy.12 mph82%29.98 "HgN/A
7:30 PM57 °FOvercast.13 mph77%29.98 "HgN/A
7:00 PM57 °FMostly cloudy.13 mph77%29.98 "HgN/A
6:30 PM57 °FBroken clouds.12 mph82%29.98 "HgN/A
6:00 PM59 °FMostly cloudy.13 mph77%29.95 "HgN/A
5:30 PM59 °FBroken clouds.13 mph77%29.98 "HgN/A
5:00 PM59 °FPartly sunny.12 mph77%29.98 "HgN/A
4:30 PM61 °FPartly sunny.13 mph72%29.95 "HgN/A
4:00 PM61 °FPartly sunny.13 mph72%29.95 "HgN/A
3:30 PM61 °FCloudy.15 mph72%29.95 "HgN/A
3:00 PM61 °FMostly cloudy.15 mph72%29.98 "HgN/A
2:30 PM61 °FPartly sunny.14 mph72%29.98 "HgN/A
2:00 PM61 °FCloudy.14 mph72%29.98 "HgN/A
1:30 PM61 °FMostly cloudy.13 mph77%29.98 "HgN/A
1:00 PM59 °FCloudy.12 mph77%29.98 "HgN/A
12:30 PM57 °FPartly sunny.10 mph88%29.98 "HgN/A
12:00 PM57 °FMore clouds than sun.7 mph88%30.01 "HgN/A
11:30 AM57 °FLight rain. Overcast.8 mph88%29.98 "HgN/A
11:00 AM57 °FOvercast.9 mph88%30.01 "HgN/A
10:30 AM57 °FOvercast.9 mph88%29.98 "HgN/A
10:00 AM55 °FOvercast.10 mph94%29.98 "HgN/A
9:30 AM55 °FOvercast.10 mph94%29.98 "Hg4 mi
9:00 AM55 °FDrizzle. Overcast.10 mph94%29.98 "HgN/A
8:30 AM55 °FPassing clouds.12 mph94%29.95 "HgN/A
8:00 AM55 °FMostly cloudy.14 mph94%29.95 "HgN/A
7:30 AM59 °FPartly cloudy.10 mph94%29.95 "Hg4 mi
7:00 AM59 °FMostly cloudy.9 mph88%29.95 "HgN/A
Weather by CustomWeather, © 2015

See weather overviewHow to use our weather pages